Skip Navigation Links weather.gov 
NOAA logo-Select to go to the NOAA homepage NDBC Title GraphicClick to go to NDBC home page   Select to go to the NWS homepage
Home About Us Contact Us
 
 
    
    Station List

 Data Access
    Mobile Access
    Classic Maps
         Recent
         DART®
    Obs Search
    Ship Obs Report
    BuoyCAMs
    TAO
    DODS
    OceanSITES
    HF Radar
    OSMC
    Dial-A-Buoy
    RSS Feeds Image indicating link to RSS feed access page
    Web Widget
    Web Data Guide
    Maintenance Schedule
    Station Status Report

 Program Info
    TAO
    DART®
    IOOS®

 Publications
    NDBC PEA
    NDBC FONSI
    NDBC DQC Handbook

 Visitor Information
 
USA.gov is the U.S. government's official web portal to all federal, state and local government web resources and services.

Station HAXA2 - Haines Harbor, AK Image indicating link to RSS feed of recent meteorological observations for station HAXA2

Owned and maintained by Marine Exchange of Alaska
C-MAN Station
59.234 N 135.442 W (59°14'3" N 135°26'30" W)

Site elevation: 7.6 m above mean sea level
Air temp height: 4.6 m above site elevation
Anemometer height: 4.6 m above site elevation
Barometer elevation: 12.3 m above mean sea level

Search And Rescue (SAR) Data

Meteorological Observations from Nearby Stations and Ships Image indicating link to RSS feed of recent meteorological observations near station HAXA2

Large icon indicates selected station.
yellow diamond Stations with recent data
red diamond Stations with no data in last 8 hours
     (24 hours for tsunami stations)


Conditions at HAXA2 as of
(8:12 am AKDT)
1612 GMT on 03/31/2020:
     

Click on the graph icon in the table below to see a time series plot of the last five days of that observation.

5-day plot - Wind Direction Wind Direction (WDIR): N ( 350 deg true )
5-day plot - Wind Speed Wind Speed (WSPD): 14 kts
5-day plot - Wind Gust Wind Gust (GST): 38 kts
5-day plot - Atmospheric Pressure Atmospheric Pressure (PRES): 30.32 in
5-day plot - Air Temperature Air Temperature (ATMP): 20.1 °F
5-day plot - Dew Point Dew Point (DEWP): -4.5 °F
5-day plot - Wind Chill Wind Chill (CHILL): 5.9 °F
5-day plot - Wind Speed at 10 Meters Wind Speed at 10 meters (WSPD10M): 16 kts
5-day plot - Wind Speed at 10 Meters Wind Speed at 20 meters (WSPD20M): 16 kts
5-day plot - Wind Speed, Wind Gust and Atmospheric Pressure Combined plot of Wind Speed, Gust, and Air Pressure
Previous observations
5-day plot - Wind Direction 5-day plot - Wind Speed 5-day plot - Wind Gust 5-day plot - Wave Height 5-day plot - Dominant Wave Period 5-day plot - Average Period 5-day plot - Mean Wave Direction 5-day plot - Atmospheric Pressure 5-day plot - Pressure Tendency 5-day plot - Air Temperature 5-day plot - Water Temperature 5-day plot - Dew Point 5-day plot - Salinity 5-day plot - Visibility 5-day plot - Tide (above MLLW)
MM DD TIME
(AKDT)
WDIR WSPD
kts
GST
kts
WVHT
ft
DPD
sec
APD
sec
MWD PRES
in
PTDY
in
ATMP
°F
WTMP
°F
DEWP
°F
SAL
psu
VIS
nmi
TIDE
ft
0331 8:02 am N 12 28----30.32- 19.9- -3.6---
0331 7:52 am N 15 42----30.32- 19.6- -4.7---
0331 7:42 am N 11 31----30.32- 19.6- -5.1---
0331 7:32 am N 13 35----30.31- 19.0- -5.1---
0331 7:22 am N 14 38----30.31- 18.7- -5.3---
0331 7:12 amNNW 11 44----30.30- 18.7- -5.3---
0331 7:02 am N 13 37----30.30- 18.7- -5.4---
0331 6:52 am N 19 41----30.30- 18.7- -5.1---
0331 6:42 am N 18 55----30.29- 18.9- -4.5---
0331 6:32 amNNW 14 31----30.29- 18.9- -5.6---
0331 6:22 am N 10 28----30.29- 18.9- -4.7---
0331 6:12 am N 15 39----30.29- 19.0- -5.4---
0331 6:02 am N 14 36----30.29- 19.2- -4.9---
0331 5:52 am N 17 42----30.28- 19.2- -5.6---
0331 5:42 am N 19 56----30.28- 19.2- -5.4---
0331 5:32 am N 17 36----30.27- 19.4- -5.1---
0331 5:22 am N 15 47----30.27- 19.4- -4.9---
0331 5:12 am N 16 41----30.27- 19.6- -5.8---
0331 5:02 am N 13 47----30.27- 19.8- -5.6---
0331 4:52 am N 14 59----30.27- 19.8- -5.4---
0331 4:42 amNNE 11 40----30.27- 19.8- -5.8---
0331 4:32 am N 15 37----30.26- 19.6- -5.3---
0331 4:22 amNNE 12 47----30.26- 19.8- -5.4---
0331 4:12 amNNW 13 34----30.26- 19.8- -5.6---
0331 4:02 amNNW 12 27----30.26- 19.6- -6.0---
0331 3:52 am NW 12 31----30.25- 19.8- -6.2---
0331 3:42 amNNW 10 30----30.26- 19.9- -5.8---
0331 3:32 am NW 10 39----30.26- 20.1- -6.0---
0331 3:22 amNNW 12 35----30.26- 20.3- -5.6---
0331 3:12 am N 11 30----30.26- 20.3- -5.6---
0331 3:02 amNNW 11 31----30.26- 20.3- -6.5---
0331 2:52 amNNW 9 25----30.26- 20.3- -5.6---
0331 2:42 am N 10 30----30.26- 20.3- -5.6---
0331 2:32 am N 10 27----30.26- 20.3- -6.2---
0331 2:22 am N 10 24----30.26- 20.5- -5.6---
0331 2:12 am N 9 31----30.26- 20.7- -6.0---
0331 2:02 amNNW 9 20----30.26- 20.7- -6.5---
0331 1:52 am NW 11 36----30.25- 20.8- -6.9---
0331 1:42 amNNE 11 30----30.25- 20.8- -6.3---
0331 1:32 am N 9-----30.25- 20.8- -6.7---
0331 1:22 am NW 11 56----30.24- 20.8- -6.5---
0331 1:12 am N 10 30----30.24- 21.0- -6.7---
0331 1:02 am N 12 26----30.24- 20.8- -6.5---
033112:52 amNNW 8 30----30.24- 21.0- -6.2---
033112:42 amNNW 11 25----30.23- 21.0- -6.2---
033112:32 am NW 7 26----30.24- 21.4- -6.3---
033112:22 amNNW 9 24----30.23- 21.4- -6.3---
033112:12 am N 10 25----30.23- 21.6- -6.2---
033112:02 amNNE 9 26----30.22- 21.7- -6.9---
033011:52 pm NE 7 20----30.22- 21.7- -6.9---
033011:42 pm N 9 25----30.22- 21.9- -6.5---
033011:32 pmESE 8 23----30.21- 22.1- -6.2---
033011:22 pmNNW 7 29----30.21- 22.1- -6.3---
033011:12 pm SW 6 24----30.21- 22.1- -6.9---
033011:02 pmWNW 7 21----30.20- 22.1- -6.7---
033010:52 pm W 7 22----30.20- 22.1- -5.8---
033010:42 pmWSW 6 20----30.20- 22.1- -5.1---
033010:32 pmENE 8 24----30.19- 22.3- -5.8---
033010:22 pm NW 7 22----30.19- 22.3- -6.5---
033010:12 pmNNW 7 23----30.19- 22.3- -4.9---
033010:02 pm NW 6 19----30.19- 22.6- -5.4---
0330 9:52 pmENE 7 20----30.18- 22.8- -5.8---
0330 9:42 pmESE 6 15----30.18- 22.8- -5.3---
0330 9:32 pmENE 6 15----30.17- 22.8- -5.3---
0330 9:22 pm S 4 9----30.17- 23.0- -5.4---
0330 9:12 pm NE 7 23----30.17- 23.0- -6.2---
0330 9:02 pmWSW 6 21----30.17- 23.0- -5.6---
0330 8:52 pm SW 7 17----30.16- 23.0- -6.7---
0330 8:42 pm NW 8 26----30.16- 23.0- -5.6---
0330 8:32 pm W 4 11----30.16- 23.0- -5.6---
0330 8:22 pmWSW 5 12----30.16- 23.0- -6.0---
0330 8:12 pm SW 5 12----30.15- 23.0- -6.2---
0330 8:02 pmSSE 7 27----30.15- 23.0- -5.8---
0330 7:52 pmWSW 7 22----30.14- 23.0- -6.5---
0330 7:42 pm SW 6 14----30.14- 23.0- -6.0---
0330 7:32 pmSSE 5 20----30.14- 23.2- -5.8---
0330 7:22 pmWSW 6 20----30.14- 23.2- -6.2---
0330 7:12 pm S 5 13----30.14- 23.2- -5.6---
0330 7:02 pm S 7 21----30.13- 23.2- -5.8---
0330 6:52 pm NW 7 23----30.13- 23.2- -6.7---
0330 6:42 pmWNW 6 19----30.13- 23.2- -6.2---
0330 6:32 pm E 7 25----30.12- 23.2- -6.0---
0330 6:22 pm N 9 27----30.12- 23.2- -6.2---
0330 6:12 pmNNE 12 41----30.12- 23.0- -6.3---
0330 6:02 pmNNE 11 34----30.12- 23.2- -6.2---
0330 5:52 pm N 9 39----30.11- 23.2- -6.7---
0330 5:42 pmNNE 11 26----30.12- 23.2- -7.2---
0330 5:32 pm W 8 19----30.12- 23.4- -7.2---
0330 5:22 pmNNE 10 34----30.11- 23.2- -6.5---
0330 5:12 pmNNE 12 35----30.11- 23.2- -6.3---
0330 5:02 pm N 14 37----30.11- 23.0- -6.7---
0330 4:52 pm N 12 33----30.11- 23.0- -6.2---
0330 4:42 pm N 12 40----30.11- 22.8- -6.7---
0330 4:32 pm N 15 44----30.11- 22.6- -6.9---
0330 4:22 pmNNE 12 29----30.11- 22.8- -5.8---
0330 4:12 pmNNE 13 30----30.10- 22.5- -6.5---
0330 3:52 pm N 14 41----30.10- 22.3- -7.4---
0330 3:42 pm N 13 37----30.11- 22.3- -7.1---
0330 3:32 pm N 12 34----30.11- 22.1- -7.1---
0330 3:22 pmNNE 13 38----30.11- 22.1- -6.2---
0330 3:12 pmNNE 13 37----30.11- 21.7- -6.3---
0330 3:02 pm NE 17 47----30.11- 21.6- -6.5---
0330 2:52 pmNNE 17 48----30.11- 21.7- -7.4---
0330 2:42 pmNNE 12 48----30.11- 21.7- -6.2---
0330 2:32 pmNNE 13 32----30.11- 21.6- -6.3---
0330 2:22 pmNNE 13 37----30.11- 21.6- -7.2---
0330 2:12 pmNNE 12 30----30.11- 21.2- -7.6---
0330 2:02 pmNNW 10 26----30.11- 20.8- -7.8---
0330 1:52 pm NE 18 44----30.11- 20.3- -7.4---
0330 1:42 pmNNE 17 47----30.11- 20.3- -7.8---
0330 1:32 pm N 15 41----30.11- 20.5- -7.2---
0330 1:22 pm N 18 34----30.11- 19.9- -8.0---
0330 1:12 pmNNE 16 45----30.11- 20.1- -7.8---
0330 1:02 pm N 16 42----30.12- 19.8- -8.3---
033012:52 pmNNE 16 44----30.11- 19.8- -8.5---
033012:42 pm N 14 30----30.12- 19.8- -8.9---
033012:32 pm N 17 33----30.12- 19.4- -8.5---
033012:22 pmNNE 16 42----30.11- 19.6- -7.8---
033012:12 pm NE 16 40----30.11- 19.6- -7.6---
033012:02 pm N 11 30----30.11- 19.9- -8.5---
033011:52 amNNE 12 35----30.11- 19.8- -8.5---
033011:42 amNNE 12 32----30.11- 20.1- -9.4---
033011:32 amNNW 11 32----30.11- 19.6- -9.8---
033011:22 amNNE 14 38----30.11- 19.4- -8.1---
033011:12 am N 15 49----30.11- 18.9- -8.9---
033011:02 am N 16 37----30.11- 18.5- -8.9---
033010:52 amNNE 16 34----30.10- 18.5- -7.6---
033010:42 amNNE 17 40----30.10- 18.5- -8.7---
033010:32 amNNE 14 50----30.10- 18.7- -7.6---
033010:22 amNNE 11 38----30.10- 18.7- -8.9---
033010:12 amNNE 17 46----30.10- 18.5- -8.1---
033010:02 am N 16 45----30.10- 18.5- -9.4---
0330 9:52 amNNE 17 45----30.09- 18.5- -8.3---
0330 9:42 am N 16 36----30.09- 18.3- -9.8---
0330 9:32 am N 13 35----30.09- 18.5- -9.0---
0330 9:22 am N 10 32----30.09- 18.5- -9.8---
0330 9:12 am N 14 33----30.09- 18.1--10.1---
0330 9:02 amNNE 12 28----30.09- 18.5- -8.3---
0330 8:52 amNNE 11 40----30.09- 18.3- -8.7---
0330 8:42 am NE 13 41----30.09- 18.1- -7.6---
0330 8:32 amNNE 17 50----30.09- 17.8- -8.5---
0330 8:22 am N 14 33----30.09- 18.0- -9.6---
0330 8:12 am N 9 20----30.09- 18.0- -8.9---
0330 8:02 amNNE 10 28----30.09- 18.3- -8.3---
0330 7:52 am N 11 30----30.08- 17.4- -8.9---

Description of Measurements

Links which are specific to this station are listed below:

Real Time Data in tabular form for the last forty-five days.

Historical Data & Climatic Summaries for quality controlled data for the current month, previous months, and previous years.